JST681 YPAD-YMHB

Flight info

Callsign JST681
Flight time 1h 38m
Altitude 37000
Route AD V255 BENDO Y218 GRACY T234 URBEN Y557 MORGO V33 TASUM
Aircraft A320/M-SDE3FGHIRWY/LB1

Departure

Time 2026-04-23 17:39
Airport Adelaide International Airport (YPAD)

Arrival

Time 2026-04-23 19:18
Airport Hobart International Airport (YMHB)
Time Latitude Longitude Altitude Speed Heading
2026-04-23 17:13 -34.94055 138.53660 26 ft 0 kts 320°
2026-04-23 17:29 -34.94082 138.53687 22 ft 4 kts 320°
2026-04-23 17:30 -34.94101 138.53710 24 ft 4 kts 304°
2026-04-23 17:30 -34.94107 138.53753 28 ft 0 kts 230°
2026-04-23 17:32 -34.94112 138.53746 28 ft 4 kts 231°
2026-04-23 17:32 -34.94143 138.53694 23 ft 10 kts 232°
2026-04-23 17:32 -34.94205 138.53640 22 ft 13 kts 186°
2026-04-23 17:32 -34.94299 138.53643 21 ft 15 kts 214°
2026-04-23 17:33 -34.94374 138.53538 19 ft 17 kts 233°
2026-04-23 17:33 -34.94447 138.53421 20 ft 16 kts 232°
2026-04-23 17:33 -34.94510 138.53312 22 ft 15 kts 244°
2026-04-23 17:33 -34.94507 138.53182 20 ft 15 kts 249°
2026-04-23 17:34 -34.94579 138.53107 21 ft 13 kts 234°
2026-04-23 17:34 -34.94561 138.53000 20 ft 14 kts 296°
2026-04-23 17:34 -34.94632 138.52823 18 ft 16 kts 219°
2026-04-23 17:35 -34.94721 138.52739 16 ft 17 kts 217°
2026-04-23 17:35 -34.94899 138.52576 17 ft 15 kts 217°
2026-04-23 17:35 -34.94989 138.52495 17 ft 17 kts 216°
2026-04-23 17:36 -34.95084 138.52407 17 ft 18 kts 217°
2026-04-23 17:36 -34.95177 138.52313 17 ft 16 kts 221°
2026-04-23 17:36 -34.95268 138.52217 16 ft 18 kts 221°
2026-04-23 17:36 -34.95360 138.52108 18 ft 20 kts 226°
2026-04-23 17:37 -34.95442 138.51989 18 ft 17 kts 232°
2026-04-23 17:37 -34.95520 138.51866 19 ft 19 kts 232°
2026-04-23 17:37 -34.95720 138.51641 14 ft 20 kts 182°
2026-04-23 17:38 -34.95807 138.51718 10 ft 18 kts 107°
2026-04-23 17:38 -34.95745 138.51880 13 ft 32 kts 49°
2026-04-23 17:38 -34.95496 138.52238 20 ft 87 kts 50°
2026-04-23 17:38 -34.94976 138.52990 21 ft 142 kts 50°
2026-04-23 17:39 -34.94283 138.54013 334 ft 162 kts 48°
2026-04-23 17:39 -34.93566 138.55069 1046 ft 161 kts 48°
2026-04-23 17:39 -34.92849 138.56104 1816 ft 160 kts 46°
2026-04-23 17:39 -34.92332 138.57374 2221 ft 185 kts 82°
2026-04-23 17:40 -34.92691 138.59011 2561 ft 219 kts 115°
2026-04-23 17:40 -34.93452 138.60731 2973 ft 243 kts 114°
2026-04-23 17:40 -34.94284 138.62636 3519 ft 264 kts 115°
2026-04-23 17:40 -34.95158 138.64646 4343 ft 273 kts 115°
2026-04-23 17:41 -34.96049 138.66713 5304 ft 277 kts 116°
2026-04-23 17:41 -34.97855 138.70945 7194 ft 283 kts 117°
2026-04-23 17:41 -34.98764 138.73091 8042 ft 287 kts 117°
2026-04-23 17:42 -35.00592 138.77426 9823 ft 292 kts 118°
2026-04-23 17:42 -35.01536 138.79658 10449 ft 305 kts 118°
2026-04-23 17:42 -35.02546 138.82043 10705 ft 328 kts 119°
2026-04-23 17:43 -35.03630 138.84604 10950 ft 350 kts 118°
2026-04-23 17:43 -35.04760 138.87282 11506 ft 358 kts 118°
2026-04-23 17:43 -35.05902 138.90005 12206 ft 362 kts 117°
2026-04-23 17:43 -35.06850 138.92871 12936 ft 366 kts 111°
2026-04-23 17:44 -35.07741 138.95795 13664 ft 369 kts 110°
2026-04-23 17:44 -35.08637 138.98746 14350 ft 372 kts 110°
2026-04-23 17:44 -35.10448 139.04733 15584 ft 379 kts 111°
2026-04-23 17:45 -35.11364 139.07772 16174 ft 383 kts 111°
2026-04-23 17:45 -35.13218 139.13922 17395 ft 389 kts 111°
2026-04-23 17:45 -35.14160 139.17045 18024 ft 393 kts 112°
2026-04-23 17:46 -35.16063 139.23372 19222 ft 400 kts 111°
2026-04-23 17:46 -35.17027 139.26581 19811 ft 403 kts 112°
2026-04-23 17:46 -35.17997 139.29808 20403 ft 406 kts 111°
2026-04-23 17:47 -35.18976 139.33065 20974 ft 410 kts 112°
2026-04-23 17:47 -35.19963 139.36349 21513 ft 413 kts 112°
2026-04-23 17:47 -35.21948 139.42985 22535 ft 419 kts 112°
2026-04-23 17:48 -35.22951 139.46343 23038 ft 421 kts 112°
2026-04-23 17:48 -35.24051 139.49671 23535 ft 422 kts 119°
2026-04-23 17:48 -35.25536 139.52706 23990 ft 422 kts 128°
2026-04-23 17:48 -35.27384 139.55498 24359 ft 423 kts 132°
2026-04-23 17:49 -35.29283 139.58272 24725 ft 427 kts 132°
2026-04-23 17:49 -35.31188 139.61070 25088 ft 429 kts 131°
2026-04-23 17:49 -35.33101 139.63895 25448 ft 432 kts 131°
2026-04-23 17:49 -35.35024 139.66742 25798 ft 435 kts 132°
2026-04-23 17:50 -35.36959 139.69607 26156 ft 438 kts 131°
2026-04-23 17:50 -35.40862 139.75397 26885 ft 443 kts 131°
2026-04-23 17:50 -35.42829 139.78316 27244 ft 445 kts 132°
2026-04-23 17:51 -35.44806 139.81247 27598 ft 448 kts 131°
2026-04-23 17:51 -35.46796 139.84200 27940 ft 450 kts 132°
2026-04-23 17:51 -35.50809 139.90157 28626 ft 455 kts 132°
2026-04-23 17:52 -35.52830 139.93155 28954 ft 457 kts 132°
2026-04-23 17:52 -35.56901 139.99218 29681 ft 460 kts 132°
2026-04-23 17:52 -35.58928 140.02253 30182 ft 458 kts 132°
2026-04-23 17:53 -35.62960 140.08298 31040 ft 456 kts 132°
2026-04-23 17:53 -35.64972 140.11311 31454 ft 455 kts 132°
2026-04-23 17:53 -35.66981 140.14316 31872 ft 454 kts 132°
2026-04-23 17:54 -35.68985 140.17309 32297 ft 453 kts 132°
2026-04-23 17:54 -35.70988 140.20302 32741 ft 452 kts 133°
2026-04-23 17:54 -35.74954 140.26267 33623 ft 449 kts 133°
2026-04-23 17:55 -35.78892 140.32204 34507 ft 447 kts 133°
2026-04-23 17:55 -35.80858 140.35164 34885 ft 445 kts 133°
2026-04-23 17:55 -35.82816 140.38113 35269 ft 444 kts 133°
2026-04-23 17:56 -35.84769 140.41060 35642 ft 443 kts 133°
2026-04-23 17:56 -35.88624 140.46891 36389 ft 440 kts 133°
2026-04-23 17:56 -35.90553 140.49815 36742 ft 439 kts 133°
2026-04-23 17:57 -35.92479 140.52736 37074 ft 438 kts 133°
2026-04-23 17:57 -35.94402 140.55650 37322 ft 438 kts 133°
2026-04-23 17:58 -36.00201 140.64452 37374 ft 441 kts 133°
2026-04-23 17:58 -36.04061 140.70329 37374 ft 440 kts 133°
2026-04-23 17:59 -36.07927 140.76204 37375 ft 441 kts 133°
2026-04-23 17:59 -36.11793 140.82104 37375 ft 441 kts 133°
2026-04-23 18:00 -36.15650 140.88006 37396 ft 441 kts 133°
2026-04-23 18:00 -36.19506 140.93925 37397 ft 441 kts 133°
2026-04-23 18:01 -36.23728 140.99336 37391 ft 433 kts 147°
2026-04-23 18:01 -36.28972 141.02825 37390 ft 426 kts 160°
2026-04-23 18:02 -36.33532 141.05162 37391 ft 427 kts 160°
2026-04-23 18:02 -36.39947 141.08460 37388 ft 427 kts 160°
2026-04-23 18:03 -36.45441 141.11290 37402 ft 427 kts 160°
2026-04-23 18:03 -36.50935 141.14114 37396 ft 427 kts 160°
2026-04-23 18:04 -36.56384 141.16934 37396 ft 427 kts 160°
2026-04-23 18:04 -36.61873 141.19767 37394 ft 427 kts 160°
2026-04-23 18:05 -36.67361 141.22603 37388 ft 427 kts 160°
2026-04-23 18:05 -36.72853 141.25462 37395 ft 427 kts 160°
2026-04-23 18:06 -36.78346 141.28317 37391 ft 427 kts 160°
2026-04-23 18:06 -36.83838 141.31174 37388 ft 428 kts 160°
2026-04-23 18:07 -36.89333 141.34044 37390 ft 428 kts 160°
2026-04-23 18:07 -36.94827 141.36908 37395 ft 428 kts 160°
2026-04-23 18:08 -36.99392 141.39287 37394 ft 427 kts 160°
2026-04-23 18:08 -37.05810 141.42641 37392 ft 427 kts 160°
2026-04-23 18:09 -37.10367 141.45032 37393 ft 427 kts 160°
2026-04-23 18:09 -37.15851 141.47918 37390 ft 427 kts 160°
2026-04-23 18:10 -37.21338 141.50807 37388 ft 428 kts 160°
2026-04-23 18:10 -37.26835 141.53706 37387 ft 428 kts 160°
2026-04-23 18:11 -37.32324 141.56594 37389 ft 428 kts 160°
2026-04-23 18:11 -37.37509 141.60320 37381 ft 433 kts 148°
2026-04-23 18:12 -37.42382 141.64695 37381 ft 433 kts 148°
2026-04-23 18:12 -37.47296 141.69090 37382 ft 433 kts 148°
2026-04-23 18:13 -37.52216 141.73488 37384 ft 434 kts 148°
2026-04-23 18:13 -37.57135 141.77900 37382 ft 434 kts 148°
2026-04-23 18:14 -37.62056 141.82311 37394 ft 434 kts 148°
2026-04-23 18:14 -37.66974 141.86730 37389 ft 434 kts 148°
2026-04-23 18:15 -37.71884 141.91160 37384 ft 434 kts 148°
2026-04-23 18:15 -37.76788 141.95601 37385 ft 434 kts 148°
2026-04-23 18:16 -37.81693 142.00035 37383 ft 433 kts 148°
2026-04-23 18:16 -37.86605 142.04476 37379 ft 433 kts 148°
2026-04-23 18:17 -37.93959 142.11136 37382 ft 433 kts 148°
2026-04-23 18:17 -37.98824 142.15560 37380 ft 433 kts 148°
2026-04-23 18:18 -38.03714 142.20016 37381 ft 433 kts 148°
2026-04-23 18:18 -38.08608 142.24481 37375 ft 433 kts 147°
2026-04-23 18:19 -38.13496 142.28951 37384 ft 432 kts 148°
2026-04-23 18:19 -38.18375 142.33415 37381 ft 432 kts 148°
2026-04-23 18:20 -38.23244 142.37884 37375 ft 431 kts 148°
2026-04-23 18:20 -38.28104 142.42351 37381 ft 431 kts 147°
2026-04-23 18:21 -38.32959 142.46823 37377 ft 431 kts 147°
2026-04-23 18:21 -38.37812 142.51304 37369 ft 431 kts 147°
2026-04-23 18:22 -38.42664 142.55787 37376 ft 430 kts 148°
2026-04-23 18:22 -38.47511 142.60263 37379 ft 430 kts 147°
2026-04-23 18:23 -38.54749 142.66964 37377 ft 430 kts 147°
2026-04-23 18:24 -38.62018 142.73721 37382 ft 430 kts 147°
2026-04-23 18:25 -38.69271 142.80482 37385 ft 430 kts 147°
2026-04-23 18:25 -38.74109 142.84992 37397 ft 430 kts 147°
2026-04-23 18:26 -38.78933 142.89511 37386 ft 429 kts 147°
2026-04-23 18:26 -38.83754 142.94034 37389 ft 429 kts 147°
2026-04-23 18:27 -38.88588 142.98567 37403 ft 429 kts 147°
2026-04-23 18:27 -38.93355 143.03193 37397 ft 430 kts 145°
2026-04-23 18:28 -38.97954 143.08030 37395 ft 430 kts 144°
2026-04-23 18:28 -39.02561 143.12937 37392 ft 429 kts 144°
2026-04-23 18:29 -39.07189 143.17799 37390 ft 429 kts 144°
2026-04-23 18:29 -39.11837 143.22636 37388 ft 429 kts 144°
2026-04-23 18:30 -39.16480 143.27481 37386 ft 429 kts 144°
2026-04-23 18:30 -39.21115 143.32347 37400 ft 429 kts 144°
2026-04-23 18:31 -39.25743 143.37222 37398 ft 429 kts 144°
2026-04-23 18:31 -39.30369 143.42089 37399 ft 429 kts 144°
2026-04-23 18:32 -39.34987 143.46968 37389 ft 429 kts 144°
2026-04-23 18:32 -39.39611 143.51848 37385 ft 429 kts 144°
2026-04-23 18:33 -39.44232 143.56740 37383 ft 430 kts 144°
2026-04-23 18:33 -39.48832 143.61604 37402 ft 430 kts 144°
2026-04-23 18:34 -39.53458 143.66508 37399 ft 429 kts 144°
2026-04-23 18:34 -39.58066 143.71423 37402 ft 429 kts 144°
2026-04-23 18:35 -39.62685 143.76354 37399 ft 430 kts 144°
2026-04-23 18:35 -39.67303 143.81280 37403 ft 429 kts 144°
2026-04-23 18:36 -39.71913 143.86212 37402 ft 429 kts 144°
2026-04-23 18:36 -39.76519 143.91154 37400 ft 430 kts 144°
2026-04-23 18:37 -39.81130 143.96109 37408 ft 429 kts 144°
2026-04-23 18:37 -39.85734 144.01053 37405 ft 429 kts 144°
2026-04-23 18:38 -39.90336 144.05994 37403 ft 429 kts 144°
2026-04-23 18:38 -39.94929 144.10955 37417 ft 429 kts 144°
2026-04-23 18:39 -39.99511 144.15922 37401 ft 428 kts 144°
2026-04-23 18:39 -40.04068 144.20862 37392 ft 429 kts 144°
2026-04-23 18:40 -40.08657 144.25835 37391 ft 429 kts 144°
2026-04-23 18:40 -40.13243 144.30823 37404 ft 428 kts 144°
2026-04-23 18:41 -40.17818 144.35805 37398 ft 428 kts 144°
2026-04-23 18:41 -40.22390 144.40785 37392 ft 428 kts 144°
2026-04-23 18:42 -40.26956 144.45779 37407 ft 427 kts 144°
2026-04-23 18:42 -40.31514 144.50780 37403 ft 427 kts 144°
2026-04-23 18:43 -40.36078 144.55789 37396 ft 428 kts 144°
2026-04-23 18:43 -40.40641 144.60804 37395 ft 428 kts 144°
2026-04-23 18:44 -40.45170 144.65781 37406 ft 427 kts 144°
2026-04-23 18:44 -40.49723 144.70809 37401 ft 427 kts 144°
2026-04-23 18:45 -40.54270 144.75845 37393 ft 427 kts 144°
2026-04-23 18:45 -40.58809 144.80868 37405 ft 426 kts 144°
2026-04-23 18:46 -40.63342 144.85892 37401 ft 426 kts 144°
2026-04-23 18:46 -40.67878 144.90928 37397 ft 426 kts 144°
2026-04-23 18:47 -40.72411 144.95977 37394 ft 427 kts 144°
2026-04-23 18:47 -40.76940 145.01033 37409 ft 426 kts 144°
2026-04-23 18:48 -40.81466 145.06096 37401 ft 426 kts 144°
2026-04-23 18:48 -40.85977 145.11161 37394 ft 426 kts 144°
2026-04-23 18:49 -40.90467 145.16267 37394 ft 426 kts 143°
2026-04-23 18:49 -40.94945 145.21393 37384 ft 426 kts 143°
2026-04-23 18:50 -40.98672 145.25662 37385 ft 426 kts 143°
2026-04-23 18:50 -41.03892 145.31637 37390 ft 427 kts 143°
2026-04-23 18:51 -41.08388 145.36778 37401 ft 427 kts 143°
2026-04-23 18:51 -41.12875 145.41944 37410 ft 427 kts 143°
2026-04-23 18:52 -41.17366 145.47114 37409 ft 427 kts 143°
2026-04-23 18:52 -41.21851 145.52284 37415 ft 427 kts 143°
2026-04-23 18:53 -41.26334 145.57458 37414 ft 426 kts 143°
2026-04-23 18:53 -41.30810 145.62631 37407 ft 426 kts 143°
2026-04-23 18:54 -41.34525 145.66939 37404 ft 426 kts 143°
2026-04-23 18:54 -41.39715 145.72962 37418 ft 426 kts 143°
2026-04-23 18:55 -41.44172 145.78149 37415 ft 426 kts 143°
2026-04-23 18:55 -41.48626 145.83352 37415 ft 426 kts 143°
2026-04-23 18:56 -41.52358 145.87710 37414 ft 425 kts 143°
2026-04-23 18:56 -41.56779 145.92892 37421 ft 425 kts 143°
2026-04-23 18:57 -41.61224 145.98109 37409 ft 426 kts 143°
2026-04-23 18:57 -41.65680 146.03342 37405 ft 426 kts 144°
2026-04-23 18:58 -41.70126 146.08586 37415 ft 426 kts 143°
2026-04-23 18:58 -41.74576 146.13829 37412 ft 426 kts 143°
2026-04-23 18:59 -41.79021 146.19072 37404 ft 426 kts 143°
2026-04-23 18:59 -41.81246 146.21701 37230 ft 426 kts 143°
2026-04-23 18:59 -41.83471 146.24336 36566 ft 427 kts 143°
2026-04-23 18:59 -41.85686 146.27003 35869 ft 430 kts 140°
2026-04-23 19:00 -41.87671 146.30048 35074 ft 439 kts 131°
2026-04-23 19:00 -41.89301 146.33563 34209 ft 449 kts 122°
2026-04-23 19:00 -41.90703 146.37272 33174 ft 454 kts 121°
2026-04-23 19:00 -41.92140 146.41066 32196 ft 457 kts 121°
2026-04-23 19:01 -41.93590 146.44882 31222 ft 460 kts 121°
2026-04-23 19:01 -41.95053 146.48724 30025 ft 465 kts 120°
2026-04-23 19:01 -41.96532 146.52618 28806 ft 468 kts 120°
2026-04-23 19:01 -41.98009 146.56525 27699 ft 469 kts 120°
2026-04-23 19:02 -41.99463 146.60392 27071 ft 460 kts 120°
2026-04-23 19:02 -42.00898 146.64213 26284 ft 455 kts 120°
2026-04-23 19:02 -42.02316 146.67999 25523 ft 452 kts 119°
2026-04-23 19:02 -42.03723 146.71757 24770 ft 449 kts 120°
2026-04-23 19:03 -42.05126 146.75492 24017 ft 446 kts 121°
2026-04-23 19:03 -42.06522 146.79211 23191 ft 443 kts 120°
2026-04-23 19:03 -42.07900 146.82890 22461 ft 437 kts 120°
2026-04-23 19:03 -42.09262 146.86528 21736 ft 432 kts 120°
2026-04-23 19:04 -42.10603 146.90125 21028 ft 428 kts 120°
2026-04-23 19:04 -42.11928 146.93695 20345 ft 424 kts 118°
2026-04-23 19:04 -42.13244 146.97239 19685 ft 421 kts 118°
2026-04-23 19:04 -42.14556 147.00760 19036 ft 419 kts 118°
2026-04-23 19:05 -42.15847 147.04211 18420 ft 416 kts 119°
2026-04-23 19:05 -42.17371 147.07497 17800 ft 411 kts 129°
2026-04-23 19:05 -42.19251 147.10356 17206 ft 405 kts 139°
2026-04-23 19:05 -42.21313 147.12909 16611 ft 401 kts 140°
2026-04-23 19:06 -42.23362 147.15440 16009 ft 397 kts 140°
2026-04-23 19:06 -42.25390 147.17952 15402 ft 394 kts 139°
2026-04-23 19:06 -42.27405 147.20447 14781 ft 391 kts 140°
2026-04-23 19:06 -42.29404 147.22927 14153 ft 389 kts 139°
2026-04-23 19:07 -42.31419 147.25345 13449 ft 386 kts 144°
2026-04-23 19:07 -42.33648 147.27329 12602 ft 384 kts 153°
2026-04-23 19:07 -42.35956 147.29055 11826 ft 370 kts 153°
2026-04-23 19:07 -42.38119 147.30666 11647 ft 340 kts 153°
2026-04-23 19:08 -42.40121 147.32156 11419 ft 319 kts 153°
2026-04-23 19:08 -42.42044 147.33584 10884 ft 312 kts 153°
2026-04-23 19:08 -42.43909 147.34972 10718 ft 306 kts 154°
2026-04-23 19:08 -42.45794 147.36381 10302 ft 310 kts 153°
2026-04-23 19:09 -42.47664 147.37782 10126 ft 305 kts 153°
2026-04-23 19:09 -42.49516 147.39173 9961 ft 303 kts 153°
2026-04-23 19:09 -42.51365 147.40564 9554 ft 304 kts 153°
2026-04-23 19:09 -42.53215 147.41957 9175 ft 304 kts 153°
2026-04-23 19:10 -42.55062 147.43346 8804 ft 304 kts 153°
2026-04-23 19:10 -42.56916 147.44738 8441 ft 304 kts 153°
2026-04-23 19:10 -42.58762 147.46138 8074 ft 304 kts 150°
2026-04-23 19:10 -42.60447 147.47890 7707 ft 306 kts 142°
2026-04-23 19:11 -42.62071 147.49741 7422 ft 303 kts 142°
2026-04-23 19:11 -42.63693 147.51591 7083 ft 304 kts 142°
2026-04-23 19:11 -42.65311 147.53438 6620 ft 302 kts 142°
2026-04-23 19:11 -42.66911 147.55262 6236 ft 300 kts 142°
2026-04-23 19:12 -42.67961 147.56457 6131 ft 295 kts 142°
2026-04-23 19:12 -42.70026 147.58808 5954 ft 282 kts 141°
2026-04-23 19:12 -42.71509 147.60498 5772 ft 276 kts 142°
2026-04-23 19:12 -42.72982 147.62177 5478 ft 277 kts 141°
2026-04-23 19:13 -42.74460 147.63862 5167 ft 278 kts 141°
2026-04-23 19:13 -42.75933 147.65543 4860 ft 276 kts 141°
2026-04-23 19:13 -42.77406 147.67226 4532 ft 276 kts 141°
2026-04-23 19:13 -42.78875 147.68906 4218 ft 276 kts 140°
2026-04-23 19:14 -42.80432 147.70356 3896 ft 275 kts 160°
2026-04-23 19:14 -42.82292 147.70628 3571 ft 269 kts 193°
2026-04-23 19:14 -42.83960 147.69572 3214 ft 266 kts 219°
2026-04-23 19:14 -42.85456 147.68074 2854 ft 268 kts 217°
2026-04-23 19:15 -42.86940 147.66627 2496 ft 255 kts 218°
2026-04-23 19:15 -42.88123 147.64963 2174 ft 237 kts 237°
2026-04-23 19:15 -42.88792 147.62985 1855 ft 223 kts 256°
2026-04-23 19:15 -42.88960 147.60966 1601 ft 206 kts 275°
2026-04-23 19:16 -42.88716 147.59126 1331 ft 190 kts 291°
2026-04-23 19:16 -42.88164 147.57571 1056 ft 175 kts 304°
2026-04-23 19:16 -42.87410 147.56343 836 ft 163 kts 316°
2026-04-23 19:17 -42.85869 147.54256 363 ft 155 kts 315°
2026-04-23 19:17 -42.85120 147.53235 194 ft 151 kts 315°
2026-04-23 19:17 -42.84385 147.52239 39 ft 148 kts 314°
2026-04-23 19:17 -42.83750 147.51363 23 ft 106 kts 315°
2026-04-23 19:18 -42.83371 147.50842 21 ft 45 kts 314°
2026-04-23 19:18 -42.83349 147.50613 22 ft 26 kts 225°
2026-04-23 19:18 -42.83463 147.50590 24 ft 16 kts 129°
2026-04-23 19:18 -42.83535 147.50695 24 ft 16 kts 154°
2026-04-23 19:19 -42.83648 147.50589 24 ft 0 kts 219°